Location: ???????
(54.9996°N, 37.9529°E)
Time: 10:20:51
(UTC+00:00)

NOSS 3-1 (C) - Pass Details

Date: 14 April 2024
Orbit: 652 x 1553 km, 63.4° (Epoch: 15 May)

Event Time Altitude Azimuth Distance (km) Brightness Sun altitude
Rises 23:59:42 0° 305° (NW) 3,580 6.4 -18.2°
Reaches altitude 10° 00:02:03 10° 308° (NW) 2,750 5.8 -17.9°
Maximum altitude 00:08:36 65° 31° (NNE) 1,268 4.3 -17.3°
Drops below altitude 10° 00:16:47 10° 112° (ESE) 3,405 6.6 -16.5°
Sets 00:19:59 0° 116° (ESE) 4,487 7.2 -16.2°
